Norfolk, NE

11:05 PM CST on February 19, 2017 (GMT -0600)
Stefan Memorial

Weather History for KOFK - March, 2014

Change the Weather History Date:

Monday, March 24, 2014

  Actual Average Record
Temperature  
Mean Temperature 31 °F 41 °F  
Max Temperature 41 °F 52 °F 84 °F (1967)
Min Temperature 21 °F 29 °F 2 °F (1934)
Degree Days  
Heating Degree Days 34 24  
Month to date heating degree days 772 696  
Since 1 July heating degree days 6122 5789  
Cooling Degree Days 0 0  
Month to date cooling degree days 0 0  
Year to date cooling degree days 0 0  
Moisture  
Dew Point 16 °F    
Average Humidity 58    
Maximum Humidity 77    
Minimum Humidity 38    
Precipitation  
Precipitation T in 0.07 in 1.17 in (1962)
Month to date precipitation 0.34 1.25  
Year to date precipitation 0.90 2.60  
Snow  
Snow T in 0.10 in - ()
Month to date snowfall 4.0 4.0  
Since 1 July snowfall 15.4 26.8  
Snow Depth 0.00 in    
Sea Level Pressure  
Sea Level Pressure 30.27 in    
Wind  
Wind Speed 10 mph (NNW)    
Max Wind Speed 25 mph    
Max Gust Speed 32 mph    
Visibility 10 miles    
Events Snow    
T = Trace of Precipitation, MM = Missing Value Source: NWS Daily Summary

Daily Weather History Graph

Daily Weather History Graph

Search for Another Location

Airport or City:

Trip Planner

Search our weather history database for the weather conditions in past years. The results will help you decide how hot, cold, wet, or windy it might be!

Date:

Astronomy

Mar. 24, 2014 Rise Set
Actual Time 7:26 AM CDT 7:46 PM CDT
Civil Twilight 6:58 AM CDT 8:14 PM CDT
Nautical Twilight 6:25 AM CDT 8:47 PM CDT
Astronomical Twilight 5:51 AM CDT 9:21 PM CDT
Moon 3:02 AM CDT (3/24) 1:07 PM CDT (3/24)
Length of Visible Light 13h 16m
Length of Day
12h 20m
Last Quarter, 43% of the Moon is Illuminated
Mar 24
Last Quarter
Mar 30
New
Apr 7
First Quarter
Apr 15
Full
Apr 22
Last Quarter

Hourly Weather History & Observations

Time (CDT) Temp. Windchill Dew Point Humidity Pressure Visibility Wind Dir Wind Speed Gust Speed Precip Events Conditions
12:56 AM 33.1 °F 26.1 °F 12.0 °F 42% 30.26 in 10.0 mi SSE 8.1 mph - N/A   Overcast
1:56 AM 32.0 °F 25.6 °F 12.0 °F 44% 30.28 in 10.0 mi SSE 6.9 mph - N/A   Overcast
2:56 AM 32.0 °F 28.7 °F 12.0 °F 44% 30.27 in 10.0 mi ESE 3.5 mph - N/A   Overcast
3:56 AM 30.0 °F 24.1 °F 12.0 °F 47% 30.24 in 10.0 mi ESE 5.8 mph - N/A   Overcast
4:56 AM 28.9 °F 21.9 °F 10.9 °F 47% 30.23 in 10.0 mi ESE 6.9 mph - N/A   Overcast
5:56 AM 28.9 °F 23.9 °F 12.0 °F 49% 30.24 in 10.0 mi East 4.6 mph - N/A   Overcast
6:56 AM 27.0 °F 20.5 °F 12.0 °F 53% 30.25 in 10.0 mi East 5.8 mph - N/A   Overcast
7:56 AM 26.1 °F - 12.0 °F 55% 30.26 in 10.0 mi Calm Calm - N/A   Scattered Clouds
8:56 AM 30.0 °F - 10.9 °F 45% 30.27 in 10.0 mi Calm Calm - N/A   Scattered Clouds
9:56 AM 32.0 °F 26.4 °F 12.0 °F 44% 30.28 in 10.0 mi NNW 5.8 mph - N/A   Clear
10:56 AM 37.0 °F 28.5 °F 18.0 °F 46% 30.28 in 10.0 mi NNW 13.8 mph - N/A   Clear
11:56 AM 41.0 °F 31.9 °F 18.0 °F 40% 30.27 in 10.0 mi NNW 19.6 mph - N/A   Partly Cloudy
12:56 PM 41.0 °F 31.9 °F 18.0 °F 40% 30.29 in 10.0 mi North 19.6 mph 24.2 mph N/A   Scattered Clouds
1:56 PM 39.9 °F 31.8 °F 18.0 °F 41% 30.29 in 10.0 mi NNW 15.0 mph 26.5 mph N/A   Scattered Clouds
2:56 PM 37.9 °F 28.2 °F 17.1 °F 43% 30.28 in 10.0 mi NNW 18.4 mph - N/A   Overcast
3:56 PM 37.0 °F 26.4 °F 23.0 °F 57% 30.28 in 10.0 mi NNW 20.7 mph 29.9 mph N/A   Overcast
4:56 PM 36.0 °F 26.0 °F 19.0 °F 50% 30.27 in 8.0 mi NNW 17.3 mph - 0.00 in Snow Light Snow
5:56 PM 35.1 °F 24.8 °F 24.1 °F 64% 30.29 in 3.0 mi NNW 17.3 mph - 0.00 in Snow Light Snow
6:56 PM 34.0 °F 25.0 °F 18.0 °F 52% 30.28 in 10.0 mi NW 12.7 mph - 0.00 in   Partly Cloudy
7:56 PM 28.9 °F 23.9 °F 17.1 °F 61% 30.28 in 10.0 mi North 4.6 mph - N/A   Clear
8:56 PM 27.0 °F 23.0 °F 16.0 °F 63% 30.27 in 10.0 mi West 3.5 mph - N/A   Mostly Cloudy
9:56 PM 21.9 °F 13.4 °F 15.1 °F 75% 30.27 in 10.0 mi SW 6.9 mph - N/A   Clear
10:56 PM 26.1 °F 17.6 °F 17.1 °F 69% 30.28 in 10.0 mi NW 8.1 mph - N/A   Overcast
11:56 PM 28.0 °F 17.0 °F 21.0 °F 75% 30.31 in 10.0 mi NNW 13.8 mph - N/A   Mostly Cloudy